RH
44 49 49 48 49 52 55 57 56 54 52 54 55 54 53 53 53 51 47 45 45 43 43 44 44 45 45 43 43 43 42 41 41 41 42 42 41 40 40 40 40 39 39 38 37 37 38 37 37 37 38 39 39 41 42 40 37 36 36 35 32 30 28 28 29 29 29 28 26 24 21 17 15 12 11 11 10 10 10 10 11 12 14 16 19
44 49 49 49 50 49 50 52 53 55 54 55 55 54 54 55 54 53 51 50 50 49 50 49 47 47 47 46 47 47 48 48 48 48 49 48 47 45 43 43 42 42 41 40 40 40 40 40 40 39 39 40 41 43 45 46 45 44 44 43 42 38 34 31 29 29 30 31 30 28 26 23 20 18 15 13 12 12 11 11 11 12 12 14 15
46 49 51 51 50 48 47 46 47 50 54 57 57 56 56 57 56 57 56 55 53 53 55 56 55 54 52 52 52 52 51 51 52 54 56 57 56 53 50 49 48 48 47 46 45 45 44 44 44 44 43 42 41 42 44 45 45 45 45 45 45 43 41 37 33 31 30 30 30 29 28 26 24 22 20 18 17 15 13 12 12 12 13 14 14
52 55 54 52 49 47 47 46 47 51 56 61 62 60 59 58 57 59 60 60 57 56 57 60 61 61 60 58 57 56 56 57 58 59 62 64 65 63 60 57 56 56 54 53 51 50 48 46 45 45 45 44 42 41 41 42 43 44 44 44 44 44 43 40 38 37 35 33 32 29 28 27 26 24 23 23 22 21 19 17 15 14 14 15 16
54 58 59 58 56 51 50 54 58 61 62 63 66 66 63 61 59 60 61 61 60 60 61 63 64 64 62 61 61 61 63 65 65 66 67 69 70 69 67 65 65 63 58 55 53 52 51 48 45 45 45 46 46 44 42 43 43 44 44 44 44 44 44 43 42 40 38 38 37 33 28 26 26 26 24 24 24 23 23 22 22 20 18 17 18
50 56 61 67 69 65 64 66 65 63 63 62 67 77 79 74 69 66 64 65 65 64 64 65 66 65 63 62 61 63 65 66 67 69 70 70 72 74 73 69 68 66 61 57 54 50 50 48 46 47 48 51 52 50 48 46 46 45 43 43 44 43 44 45 45 42 39 38 37 35 31 27 24 24 24 24 24 24 24 25 25 26 24 22 21
48 51 52 60 72 77 76 73 64 59 60 61 66 77 83 84 84 81 76 74 73 72 73 72 71 69 67 64 63 63 64 64 66 67 65 66 72 78 78 73 69 66 62 60 57 51 48 49 48 48 49 49 48 47 47 47 46 45 43 42 44 44 45 45 45 42 39 36 34 32 30 27 24 22 21 21 22 23 24 25 26 28 27 26 24
54 59 56 57 70 80 80 76 70 64 63 66 70 74 76 79 84 85 83 83 79 79 81 80 79 79 77 72 67 64 63 62 62 61 60 61 66 71 73 72 71 69 66 64 61 55 51 49 49 49 47 45 43 41 41 43 44 44 43 43 44 45 46 45 43 40 36 34 33 30 28 27 25 23 21 20 20 21 21 22 24 27 28 29 28
57 70 71 67 69 78 82 83 82 77 71 72 78 81 81 80 79 79 81 83 82 82 85 83 82 83 82 76 70 67 65 63 61 60 60 59 60 63 65 67 68 69 67 65 63 62 59 56 55 54 52 49 45 41 40 41 42 44 45 47 48 49 47 44 42 38 35 33 33 32 30 28 28 25 22 20 19 20 20 20 20 22 25 29 31
52 58 62 62 62 66 72 75 78 79 75 70 68 70 75 76 72 72 74 75 76 79 84 82 78 77 75 71 67 66 64 62 61 62 62 61 60 61 62 62 64 64 65 64 62 61 60 62 64 63 62 60 54 49 46 45 44 43 44 46 49 50 49 45 40 36 34 35 36 35 33 32 32 30 25 21 20 21 21 21 20 20 21 23 28
47 46 48 53 56 57 59 63 67 70 68 61 53 55 61 62 62 62 62 63 63 66 70 72 70 69 69 68 68 67 66 64 63 62 61 60 59 59 59 58 58 58 59 59 60 60 62 65 64 63 66 66 63 60 56 53 48 43 42 44 47 48 48 45 40 36 35 36 37 36 35 34 34 33 29 25 23 22 21 21 20 20 20 20 23
46 45 46 48 49 49 49 52 57 58 57 54 51 52 53 52 52 52 50 50 51 53 56 58 57 58 61 64 65 66 65 64 62 60 58 58 58 58 57 55 54 54 54 57 62 67 69 69 65 62 64 66 67 67 64 58 53 48 44 43 43 44 45 43 40 38 38 38 38 37 35 34 33 34 32 28 25 23 22 21 21 21 21 21 20
43 43 43 42 42 40 40 42 46 49 51 50 49 48 47 47 48 48 48 48 48 50 51 52 51 52 55 58 61 63 63 62 61 59 59 59 58 57 56 55 54 54 56 61 66 69 71 71 70 67 67 69 73 73 68 60 54 50 47 44 40 40 42 42 41 41 42 42 40 37 36 33 32 32 34 33 30 27 24 22 22 22 22 22 22
43 42 42 41 40 40 39 39 40 43 45 44 43 43 43 45 46 46 48 49 48 49 51 52 53 54 54 57 59 61 61 59 57 55 53 51 50 50 50 50 50 50 53 59 64 68 69 70 71 71 71 73 73 71 66 60 56 53 53 50 43 40 41 42 43 44 45 44 41 37 35 33 33 34 35 36 35 32 29 26 24 24 23 23 23
45 44 43 43 43 43 43 42 41 41 41 41 41 42 41 42 41 41 42 44 45 45 46 46 48 50 50 51 52 53 52 48 46 44 42 40 39 41 43 45 46 47 49 52 58 67 73 74 74 73 72 71 71 70 69 66 62 60 58 53 45 40 40 42 44 44 43 42 39 36 35 35 36 37 38 39 39 37 35 32 30 28 27 26 24
51 49 49 48 47 46 46 45 44 43 42 41 41 40 37 35 34 33 34 35 37 38 38 37 38 42 44 45 46 46 44 41 38 36 34 32 31 33 37 41 44 46 46 46 48 56 63 67 69 71 71 71 73 71 68 66 64 62 59 53 45 40 41 43 43 42 41 40 39 38 38 38 40 42 43 42 41 38 36 35 35 33 32 31 27
56 53 52 52 51 48 48 48 49 48 48 46 44 39 36 35 33 30 29 29 30 30 32 34 36 38 40 42 43 44 43 40 37 34 31 29 28 29 31 34 39 42 43 42 42 42 46 51 56 62 68 71 71 68 66 64 62 60 57 50 43 41 43 44 42 42 42 41 42 41 41 42 43 45 45 43 41 39 35 35 36 36 34 32 29
60 58 56 55 54 51 50 50 50 50 50 49 46 43 41 40 37 34 31 30 30 30 31 35 39 41 43 44 44 46 45 43 40 38 36 34 32 32 34 37 41 43 43 42 41 39 39 43 50 56 59 60 59 58 58 56 53 50 48 45 42 44 46 44 43 43 43 42 42 42 43 43 42 42 41 40 39 37 35 34 36 36 34 31 29
65 63 61 59 58 56 56 54 51 50 49 49 48 48 45 42 38 35 32 30 31 32 34 38 42 46 48 49 48 48 47 46 45 44 43 42 39 38 40 43 46 46 44 42 40 38 36 39 46 51 52 51 50 48 47 43 40 40 42 45 48 49 49 45 43 42 40 39 39 40 40 41 41 40 39 38 37 36 34 34 34 35 33 31 30
69 66 64 62 61 62 62 60 56 53 51 51 51 50 47 43 40 37 34 32 30 32 35 39 43 46 48 50 51 51 50 50 49 49 49 47 44 41 40 42 45 45 43 41 40 37 35 36 39 43 44 44 43 41 39 36 36 40 46 50 52 50 46 43 42 40 38 38 37 38 39 40 40 39 37 35 35 33 32 31 32 33 33 34 35
76 73 70 69 68 68 67 65 61 57 55 54 54 54 51 48 43 38 37 35 34 35 35 36 39 43 45 46 48 48 48 48 48 48 48 47 45 43 41 42 45 46 45 44 43 40 38 36 36 37 38 39 38 37 36 37 39 44 49 49 47 44 42 41 41 40 39 39 39 39 39 38 37 36 35 34 35 35 34 33 33 34 36 37 39
81 80 78 76 76 76 74 71 68 63 60 57 56 56 56 52 47 43 42 40 39 39 38 37 37 40 43 45 47 46 45 45 46 47 48 48 48 47 45 44 45 47 46 46 45 43 41 39 37 37 38 38 38 36 37 41 44 46 46 45 44 43 42 42 41 41 41 41 41 40 39 38 37 36 37 38 39 40 40 40 40 40 39 39 40
83 83 83 82 81 81 81 79 76 71 66 62 60 59 57 53 48 45 44 44 44 43 42 40 39 40 44 47 50 49 48 47 48 49 49 50 49 48 46 45 46 46 46 46 45 44 43 40 39 39 40 41 41 41 44 47 49 47 46 46 46 45 44 43 43 44 44 43 43 41 40 39 39 39 41 42 43 44 44 44 43 42 41 41 41
75 78 80 81 81 81 82 82 80 77 74 70 65 61 58 53 48 45 44 45 46 45 43 40 40 41 46 51 54 54 52 51 52 52 52 51 49 47 46 46 47 47 47 46 45 43 41 39 38 40 41 43 44 46 47 47 46 45 44 45 46 46 46 47 48 48 47 45 43 41 39 39 40 41 43 44 44 44 44 43 42 41 41 41 40
67 68 70 73 76 78 78 79 80 79 76 72 67 64 61 56 50 47 47 47 47 45 43 41 40 42 47 50 51 50 51 52 53 53 53 51 49 47 46 45 45 46 46 44 41 39 37 37 37 36 38 40 42 44 45 44 44 45 45 46 47 48 50 52 51 48 45 43 41 40 40 41 41 41 41 40 39 39 39 39 40 41 42 41 40
66 64 64 65 69 71 73 74 75 75 73 70 68 67 65 61 56 53 52 50 48 46 42 40 40 43 49 51 49 45 45 49 52 53 51 49 47 46 48 47 45 42 39 36 33 32 31 32 33 35 38 41 43 44 46 46 47 49 50 50 51 52 52 50 47 43 40 38 38 39 39 39 38 37 36 36 36 36 38 39 41 43 45 45 43
63 62 62 61 62 64 66 68 70 72 71 70 69 68 66 62 60 58 55 53 50 46 42 44 52 62 67 65 56 46 43 45 50 51 49 45 43 43 44 43 40 34 30 27 26 26 28 31 35 38 40 41 43 45 47 48 50 53 53 52 50 46 43 39 37 36 35 36 36 36 35 34 34 35 36 37 37 38 40 40 41 42 44 45 44
60 60 60 60 61 61 61 61 63 67 68 67 65 65 62 60 60 59 56 53 49 45 44 49 59 66 66 59 50 44 43 45 49 52 52 47 41 38 36 35 32 28 26 25 26 28 31 33 34 35 37 40 44 48 49 51 51 50 46 42 38 35 33 33 35 36 37 38 38 38 38 39 39 39 40 40 40 41 41 42 42 43 44 45 44
57 56 56 57 59 60 60 58 58 60 63 63 62 61 59 59 60 59 56 52 48 46 45 46 47 47 47 45 44 44 44 45 47 49 46 41 35 31 31 32 32 30 29 30 31 32 32 33 32 34 37 42 47 48 48 46 42 37 34 33 33 35 37 40 42 43 44 45 45 45 44 43 43 43 43 44 43 43 44 45 45 45 46 46 46
53 53 53 54 54 56 58 58 56 55 57 59 60 61 60 58 57 55 52 49 47 45 44 42 41 42 45 46 46 45 47 47 45 42 39 35 32 31 31 33 34 32 32 34 36 37 36 37 38 41 44 46 45 42 38 35 33 34 36 39 42 44 46 47 48 48 49 48 46 45 45 45 45 46 46 47 47 47 48 48 48 49 50 51 52
47 48 50 53 53 54 57 59 57 56 56 57 59 62 61 59 57 55 52 48 45 42 40 39 41 45 49 51 51 50 49 45 41 38 37 35 35 35 36 37 36 36 38 42 43 43 44 46 48 47 45 42 38 35 34 36 39 42 44 45 46 47 47 48 48 48 48 47 46 46 46 47 48 49 50 52 52 54 56 57 58 59 60 62 65
48 47 49 52 55 56 56 57 56 55 55 57 60 61 60 59 56 55 54 49 43 38 37 37 40 43 46 48 49 50 49 46 43 39 36 35 37 41 43 43 42 44 48 49 48 48 49 50 47 43 39 37 37 37 39 41 42 43 42 42 43 44 45 47 47 46 46 47 47 48 50 53 55 57 60 62 64 66 69 72 73 74 75 78 80
51 50 51 52 55 55 56 56 55 54 55 57 60 60 60 58 56 54 52 45 39 36 36 38 41 44 46 48 50 53 55 51 45 41 39 40 43 45 47 48 49 51 52 51 50 50 48 44 41 39 38 38 38 38 38 38 38 39 40 41 43 44 45 46 46 47 48 51 54 58 62 66 69 72 75 78 80 82 84 86 87 88 89 89 89
47 50 52 53 53 53 54 54 53 54 55 57 58 57 55 55 54 50 44 39 38 40 41 43 47 48 47 48 53 57 57 51 45 44 46 47 48 50 54 56 56 55 54 52 49 46 42 40 40 39 37 35 34 34 35 37 38 40 42 44 45 46 47 49 52 55 59 64 69 74 78 82 85 87 89 91 92 93 95 95 95 95 94 93 92
41 46 50 53 53 54 53 54 56 57 56 56 57 54 50 48 48 45 41 41 43 43 44 46 48 45 45 51 57 58 54 49 47 48 49 50 53 60 64 63 62 59 54 48 44 42 42 40 38 34 31 31 33 35 37 38 41 43 45 48 50 53 56 60 65 70 76 81 85 88 92 94 95 96 96 97 97 98 99 98 96 95 94 93 94
36 39 43 50 55 58 59 61 63 62 58 55 53 51 48 47 47 44 44 45 44 42 44 45 44 46 55 62 61 54 49 49 50 51 54 58 63 67 69 67 64 57 50 44 43 42 40 35 31 30 31 33 35 36 38 41 45 47 50 53 58 62 68 73 79 84 88 91 93 96 98 99 99 98 98 99 99 99 99 97 97 96 94 94 94
41 39 38 41 46 49 55 61 64 62 60 56 51 49 49 49 47 46 46 45 42 42 42 42 45 57 67 64 54 49 50 53 56 59 63 67 70 71 71 67 59 51 46 44 43 38 33 29 29 31 33 33 35 38 41 43 45 46 50 57 65 72 79 85 89 92 94 96 97 99 100 100 100 100 98 97 97 97 96 96 95 94 94 92 91
54 49 43 40 38 39 45 52 56 58 57 53 50 49 49 46 44 46 45 43 42 44 44 44 53 65 67 60 55 56 59 60 63 68 73 73 73 72 68 60 53 50 48 43 36 31 29 29 31 32 33 35 37 39 40 41 42 44 51 63 74 82 88 92 94 96 98 99 100 100 100 100 99 97 96 96 96 97 96 94 92 91 91 90 90
77 70 61 53 47 43 41 41 44 47 48 46 44 43 42 44 51 56 54 49 47 50 51 55 62 68 67 64 66 68 66 66 72 78 79 75 70 64 57 53 53 51 44 35 29 28 29 31 31 32 34 36 37 37 38 40 42 47 56 68 81 89 93 95 97 99 101 101 100 100 100 99 97 95 96 97 97 95 93 92 91 90 91 92 93
98 93 84 71 61 55 51 46 44 43 43 41 39 38 41 52 64 66 61 55 56 60 67 71 73 73 73 72 73 73 72 75 81 83 78 69 60 55 54 55 53 45 34 28 28 29 30 31 32 33 34 35 35 35 38 41 45 51 60 72 84 91 96 98 99 101 102 101 100 101 101 99 97 97 97 95 93 92 91 91 92 92 93 94 95
98 99 93 81 70 66 62 55 50 49 46 43 44 48 54 60 62 60 60 65 70 75 81 82 77 75 78 79 79 79 80 82 82 78 68 58 54 54 56 54 45 34 27 27 29 30 29 31 32 32 33 33 33 36 39 42 45 50 60 72 85 94 98 100 100 101 101 100 99 100 100 98 97 97 96 94 93 93 92 93 94 95 95 96 97
81 82 80 74 69 67 63 57 58 62 59 54 59 68 67 61 61 65 73 81 84 83 82 79 77 80 86 88 87 86 85 81 75 67 58 53 54 56 55 47 36 28 26 27 28 30 30 31 31 31 31 31 34 37 39 41 43 47 56 70 85 94 98 99 100 100 100 99 100 100 99 97 97 96 95 94 95 95 94 94 96 97 97 98 99
72 68 67 65 63 64 63 60 63 69 68 65 71 79 77 75 79 85 86 86 86 84 83 83 85 89 93 93 90 86 80 72 64 58 55 54 55 52 46 38 30 26 26 28 29 30 31 30 30 30 29 31 35 38 38 39 42 44 50 64 83 94 98 98 100 100 100 99 100 99 98 97 97 97 96 95 95 94 93 95 97 98 98 99 99
79 75 73 71 70 72 75 76 78 82 86 87 90 92 90 90 93 91 85 84 87 88 89 91 92 94 93 90 84 76 68 62 58 56 54 52 48 43 38 34 29 25 26 29 29 29 30 30 30 29 29 31 34 36 36 37 40 39 43 58 78 91 96 97 98 99 99 99 99 99 98 98 98 97 96 96 96 94 94 94 95 98 100 100 99
92 90 89 89 88 88 91 94 96 98 99 99 98 96 94 94 92 89 87 89 91 92 94 95 93 90 86 78 69 63 59 57 57 55 51 47 42 38 36 34 30 26 27 30 30 29 30 30 30 29 29 30 33 34 34 35 37 36 38 51 70 85 93 96 97 98 98 98 99 99 99 99 99 99 99 98 96 94 92 92 91 94 99 100 99
97 98 97 98 98 98 99 100 100 99 99 98 96 95 95 94 93 91 91 91 92 94 95 92 85 78 71 65 61 59 58 56 54 50 46 43 39 36 36 35 31 27 28 31 30 29 30 32 30 29 28 29 31 32 32 33 34 33 35 46 63 78 88 93 96 97 98 98 97 98 99 99 99 99 99 97 94 91 92 93 91 93 97 99 98
95 96 96 96 97 98 97 97 97 96 96 96 95 95 95 94 93 93 92 92 91 90 86 78 70 64 61 59 59 58 56 53 50 46 43 40 38 36 36 33 28 26 30 33 31 30 32 33 31 28 27 28 29 29 30 32 32 31 32 42 56 68 79 88 94 96 97 97 97 96 97 99 99 98 97 95 91 88 90 93 93 94 96 98 98
94 94 94 93 93 94 94 94 94 94 95 95 95 94 94 93 91 90 88 86 83 78 71 64 60 58 59 59 57 55 53 50 46 43 41 39 36 35 34 30 25 26 31 35 33 32 33 33 31 28 27 27 27 27 28 30 31 29 30 38 49 60 69 79 88 92 95 97 97 96 95 97 99 98 96 92 89 86 88 91 94 93 94 95 96
95 94 94 94 94 94 94 93 93 94 94 94 93 92 91 89 86 83 80 76 71 67 63 60 59 59 58 56 55 52 49 45 40 39 40 39 36 35 33 28 24 26 32 35 34 32 32 33 31 30 28 27 27 27 27 28 29 28 28 34 43 52 60 69 78 86 92 95 96 95 95 95 97 98 96 93 90 87 86 88 91 91 90 90 91
92 91 91 92 92 93 93 93 93 93 91 89 87 86 84 81 78 73 69 66 63 62 61 61 60 59 57 55 53 50 46 40 37 39 41 38 35 35 34 29 24 25 31 34 33 31 30 30 30 30 30 28 28 29 29 28 26 25 26 30 39 47 53 59 66 75 83 90 93 93 94 94 95 96 97 95 94 93 91 90 90 89 88 86 87
88 87 87 87 88 89 89 89 88 87 84 81 79 77 75 72 69 65 63 61 61 61 61 61 59 58 56 55 53 49 43 38 37 40 41 38 36 36 35 30 27 26 29 31 31 29 28 28 29 31 31 31 31 31 31 29 26 23 23 27 35 42 47 51 56 63 72 81 87 90 91 92 93 94 95 95 96 96 96 96 95 92 89 87 88